SCP
0 0 0 0 0 0 0 0 0 0 0 0 0 0 0 0 0 0 0 0 0 0 0 0 0 0 0 0 0 0 0 0 0 0 0 0 0 0 0 0 0 0 0 0 0 0 0 0 0 0 0 0 0 0
0 0 0 0 0 0 0 0 0 0 0 0 0 0 0 0 0 0 0 0 0 0 0 0 0 0 0 0 0 0 0 0 0 0 0 0 0 0 0 0 0 0 0 0 0 0 0 0 0 0 0 0 0 0
0 0 0 0 0 0 0 0 0 0 0 0 0 0 0 0 0 0 0 0 0 0 0 0 0 0 0 0 0 0 0 0 0 0 0 0 0 0 0 0 0 0 0 0 0 0 0 0 0 0 0 0 0 0
0 0 -0 0 0 0 0 0 0 0 0 0 0 0 0 0 0 0 0 0 0 0 0 0 0 0 0 0 0 0 0 0 0 0 0 0 0 0 0 0 0 0 0 0 0 0 0 0 0 0 0 0 0 0
0 0 0 0 0 0 0 0 0 0 0 0 0 0 0 0 0 0 0 0 0 0 0 0 0 0 0 0 0 0 0 0 0 0 0 0 0 0 0 0 0 0 0 0 0 0 0 0 0 0 0 0 0 0
0 0 0 0 0 0 0 0 0 0 0 0 0 0 0 0 0 0 0 0 0 0 0 0 0 0 0 0 0 0 0 0 0 0 0 0 0 0 0 0 0 0 0 0 0 0 1 0 0 0 0 0 0 0
0 0 0 0 0 0 0 0 0 0 0 0 0 0 0 0 0 0 0 0 0 0 0 0 0 0 0 0 0 0 0 0 0 0 0 0 0 0 0 0 0 0 0 0 0 0 0 0 0 0 0 0 0 0
0 0 0 0 0 0 0 0 0 0 0 0 0 0 0 0 0 0 0 -0 0 0 0 0 0 0 0 0 0 0 0 0 0 0 0 0 0 0 0 0 0 0 0 0 0 0 0 0 0 0 0 0 0 0
0 0 0 0 0 0 0 0 0 0 0 0 0 0 0 0 0 0 0 0 0 0 0 0 0 0 0 0 0 0 0 0 0 0 0 0 0 0 0 0 0 0 0 0 0 0 0 0 0 0 0 0 0 0
0 0 0 0 0 0 0 0 0 0 0 0 0 0 0 0 0 0 0 0 0 0 0 0 0 0 0 0 0 0 0 0 0 0 0 0 0 0 0 0 0 0 0 0 0 0 0 0 0 0 0 0 0 0
0 -0 0 0 0 0 0 0 0 0 0 0 0 0 0 0 0 0 0 0 0 0 0 0 0 0 0 0 0 0 0 0 0 0 0 0 0 0 0 0 0 0 0 0 0 0 0 0 0 0 0 0 0 0
-0 -0 -0 0 0 -0 0 0 0 0 0 0 0 0 0 0 0 0 0 0 0 0 0 0 -0 0 0 0 0 0 0 0 0 0 0 0 0 0 0 0 0 0 0 0 0 0 0 0 0 0 0 0 0 0
-0 -0 0 0 0 0 0 0 0 0 0 0 0 0 0 0 0 0 0 0 0 0 0 0 -0 0 0 0 0 0 0 0 0 0 0 0 0 0 0 0 0 0 0 0 0 0 0 0 0 0 0 0 0 0
0 -0 -0 0 0 0 0 0 0 0 0 0 0 0 0 0 0 0 0 0 0 0 0 0 0 0 0 0 0 0 0 0 0 0 0 0 0 0 0 0 0 0 0 0 0 0 0 0 0 0 0 0 0 0
0 0 0 0 0 0 0 0 0 0 0 0 0 0 0 0 0 0 0 0 0 0 0 0 0 0 0 0 0 0 0 0 0 0 0 0 0 0 0 0 0 0 0 0 0 0 0 0 0 0 0 0 0 0
0 0 0 0 0 0 0 0 0 0 0 0 0 0 0 0 0 0 0 0 0 0 0 0 0 0 0 0 0 0 0 0 0 0 0 0 0 0 0 0 0 0 0 0 0 0 0 0 0 0 0 0 0 0
0 0 0 0 0 0 0 0 0 0 0 0 0 0 0 -0 0 0 0 0 0 0 0 0 0 0 0 0 0 0 0 0 0 0 0 0 0 0 0 0 0 0 0 0 0 0 0 0 0 0 0 0 0 0
0 0 0 0 0 0 0 0 0 0 0 0 0 0 0 0 0 0 0 0 0 0 0 0 0 0 0 0 0 0 0 0 0 0 0 0 0 0 0 0 0 0 0 0 0 0 0 0 0 0 0 0 0 0
0 0 0 0 0 0 0 0 0 0 0 0 0 0 0 0 0 0 0 0 0 0 0 0 0 0 0 0 0 0 0 0 0 0 0 0 0 0 0 0 0 0 0 0 0 0 0 0 0 0 0 0 0 0
0 0 0 0 0 0 0 0 0 0 0 0 0 0 0 0 0 0 0 0 0 0 0 0 0 0 0 0 0 0 0 0 0 0 0 0 0 0 0 0 0 0 0 0 0 0 0 0 0 0 0 0 0 0
0 0 0 0 0 0 0 0 0 0 0 0 0 0 0 0 0 0 0 0 0 0 -0 -0 -0 0 0 -0 -0 -0 -0 -0 -0 -0 -0 0 0 -0 0 -0 -0 0 0 0 0 0 0 0 0 0 0 0 0 0
0 0 0 0 0 0 0 0 0 0 0 0 0 0 0 0 0 0 0 0 -0 -0 -0 -0 -0 0 0 0 -0 -0 -0 -0 -0 -0 -0 -0 -0 -0 -0 -0 -0 0 0 0 0 0 0 0 0 0 0 0 0 0
0 0 0 0 0 0 0 0 0 0 0 0 0 0 0 0 -0 -0 -0 -0 -0 -0 -0 -0 0 0 0 0 0 0 0 0 -0 -0 -0 -0 -0 -0 0 0 0 0 0 0 0 0 0 0 0 0 0 0 0 0
0 0 0 0 0 0 0 0 0 0 0 0 0 0 0 -0 -0 -0 0 -0 -0 -0 -0 0 -0 -0 -0 -0 -0 -0 0 0 0 0 0 0 -0 -0 0 0 0 0 0 0 0 0 0 0 0 0 0 0 0 0
0 0 0 0 0 0 0 0 0 0 0 0 0 0 0 -0 0 0 0 -0 -0 0 0 0 0 0 0 -0 -0 -0 -0 0 0 0 0 0 0 0 0 0 0 0 0 0 0 0 0 0 0 0 0 0 0 -0
0 0 0 0 0 0 0 0 0 0 0 0 0 0 0 0 0 0 0 0 0 0 0 0 0 0 0 0 0 0 0 0 0 0 0 0 0 0 0 0 0 0 0 0 0 0 0 0 0 0 -0 -0 -0 0
0 0 0 0 0 0 0 0 0 0 0 0 0 0 0 0 0 0 0 0 0 0 0 0 0 0 0 0 -0 -0 -0 0 0 0 0 0 0 0 0 0 0 0 0 0 0 0 0 0 0 0 0 -0 -0 -0
0 0 0 0 0 0 0 0 0 0 0 0 0 0 0 0 0 0 0 0 0 0 0 0 0 0 0 0 0 0 -0 0 0 0 0 0 0 0 0 0 0 0 0 0 0 0 0 0 -0 -0 0 -0 -0 -0
0 0 0 0 0 0 0 0 0 0 0 0 0 0 0 0 0 0 0 0 0 0 0 0 0 0 0 0 0 0 0 0 0 0 0 0 0 0 0 0 0 0 0 0 0 0 0 0 0 -0 -0 0 0 0
0 0 0 0 0 0 0 0 0 0 0 0 0 0 0 0 0 0 0 0 0 0 0 0 0 0 0 0 0 0 0 0 0 0 0 0 0 0 0 0 0 0 0 0 0 0 0 0 0 0 0 0 0 0
0 0 0 0 0 0 0 0 0 0 0 0 0 0 0 0 0 0 0 0 0 0 0 0 0 0 0 0 0 0 0 0 0 0 0 0 0 0 0 0 0 0 0 0 0 0 0 0 0 0 0 0 -0 -0
0 0 0 0 0 0 0 0 0 0 0 0 0 0 0 0 0 0 0 0 0 0 0 0 0 0 0 0 0 0 0 0 0 0 0 0 0 0 0 0 0 0 0 0 0 0 0 0 0 0 0 -0 -0 -0
0 0 0 0 0 0 0 0 0 0 0 0 0 0 0 0 0 0 0 0 0 0 0 0 0 0 0 0 0 0 0 0 0 0 0 0 0 0 0 0 0 0 0 0 0 0 0 -0 -0 -0 -0 -0 -0 -0
Wind_Speed_500mb
18 17 21 22 22 23 19 18 20 12 18 23 23 22 21 18 21 18 12 16 19 23 38 21 15 14 9 4 9 12 9 12 12 16 19 9 14 20 21 23 31 26 23 18 20 22 20 27 17 19 9 15 14 11
17 18 18 21 19 20 20 20 21 19 19 21 22 22 19 15 18 16 13 12 15 25 22 23 26 33 31 24 20 10 10 5 10 9 6 6 12 8 24 18 3 20 11 11 12 14 18 20 0 8 5 9 11 12
21 20 19 16 13 10 11 16 17 17 17 19 17 18 20 15 15 14 11 13 11 17 35 33 26 21 28 29 24 11 4 9 2 6 10 3 12 9 16 15 24 8 6 8 13 12 17 14 11 5 7 9 13 14
19 22 20 18 15 13 14 17 17 17 16 17 16 16 17 15 15 14 14 14 17 14 12 2 3 8 14 27 24 31 20 14 13 6 8 6 7 3 15 7 19 7 17 14 8 12 9 10 8 10 13 19 21 20
16 18 19 18 16 14 15 16 14 14 16 16 16 15 15 15 15 14 16 20 22 11 11 18 26 9 11 21 21 22 16 10 6 9 9 4 4 7 2 9 9 13 11 14 10 6 11 8 14 17 23 24 22 23
23 18 19 18 15 17 17 16 13 12 17 19 18 17 16 12 9 10 10 22 20 10 9 6 5 4 6 19 19 15 10 7 6 5 3 2 2 6 11 13 12 10 10 6 6 11 11 16 19 21 23 24 22 23
24 25 22 19 16 15 14 16 13 12 17 20 20 15 16 11 11 15 4 5 21 9 9 8 5 5 14 22 14 10 6 4 2 3 1 2 5 5 5 12 18 13 13 12 13 16 15 18 16 21 25 25 27 26
18 23 22 19 16 16 13 17 20 17 20 23 22 20 15 12 15 18 18 9 23 12 11 6 3 10 19 17 15 8 10 9 3 3 4 4 5 4 8 16 12 10 12 12 11 7 7 13 21 24 25 27 28 28
16 16 22 19 16 16 14 19 21 20 19 11 17 22 16 14 16 12 14 13 11 13 8 7 4 4 18 17 9 11 7 8 6 8 9 6 8 10 11 7 6 7 7 14 8 8 9 10 18 23 23 23 24 28
23 18 18 19 17 16 13 19 22 17 20 22 13 12 12 9 14 21 18 12 13 12 12 8 9 5 12 25 18 16 10 7 10 7 13 9 16 14 5 1 2 4 7 10 13 15 12 11 15 18 19 19 21 26
24 22 19 21 15 13 13 18 10 14 23 14 12 9 9 18 13 10 11 11 15 8 15 9 16 4 9 12 9 10 6 9 8 10 8 11 11 20 9 4 5 5 12 19 20 21 17 15 13 17 17 18 21 26
23 22 17 21 15 10 11 9 8 14 11 10 9 13 13 11 11 6 10 10 11 9 13 18 17 11 9 2 3 8 8 8 9 21 10 10 8 22 12 5 8 6 8 22 27 25 26 20 20 16 17 18 20 20
23 21 19 21 14 7 13 11 6 16 11 11 8 7 8 8 6 9 15 8 8 14 14 20 13 16 14 6 10 9 14 8 20 12 10 7 25 17 9 5 6 11 3 13 23 21 19 16 19 24 22 20 20 23
22 20 20 21 12 11 15 14 15 6 12 5 7 7 8 8 9 4 3 4 5 5 12 13 16 5 7 5 10 8 6 11 10 9 10 13 22 15 11 6 6 10 9 5 9 11 14 14 15 20 23 25 26 28
21 20 22 22 13 10 16 19 13 3 1 5 5 7 9 3 6 10 8 5 3 5 16 16 4 7 3 9 6 4 10 8 10 5 10 28 22 18 14 12 10 9 11 9 5 4 7 9 11 12 23 30 30 32
25 24 19 23 15 18 13 6 5 1 4 5 6 8 2 5 5 8 3 4 10 17 17 13 1 3 10 3 5 5 4 5 8 9 36 34 25 15 12 11 11 11 11 12 10 4 4 6 9 14 22 29 32 32
22 11 26 23 14 9 7 8 4 5 4 5 2 4 7 4 4 4 7 5 13 17 4 7 9 7 2 5 5 2 2 10 17 26 31 25 20 13 8 8 10 11 10 11 13 7 7 13 11 18 25 30 35 38
13 23 27 25 16 10 9 5 2 4 6 4 3 6 5 5 4 7 6 9 11 6 7 5 6 5 4 5 7 9 14 15 17 23 20 14 7 3 4 7 8 8 8 10 10 10 10 11 14 19 26 32 39 46
23 25 22 16 9 3 1 2 2 3 3 3 7 6 1 2 4 5 9 7 6 2 4 3 3 4 4 2 9 13 15 12 12 11 8 7 9 12 11 10 9 7 6 4 5 4 4 15 9 18 27 34 38 44
25 25 19 8 4 1 1 1 3 4 3 5 6 6 1 5 2 8 9 5 3 4 6 5 3 5 6 4 3 6 10 13 14 18 19 18 17 17 18 13 8 8 7 5 2 3 4 13 13 15 23 37 48 53
20 17 9 10 4 4 2 4 1 4 5 4 7 5 3 2 3 2 3 3 3 2 3 2 6 8 12 19 22 25 28 29 32 32 30 26 22 21 18 16 14 13 12 9 8 9 12 13 18 18 19 38 51 58
16 6 7 8 4 4 2 7 3 6 4 6 4 5 2 1 1 2 6 6 4 3 4 10 23 29 33 34 35 37 39 42 43 44 43 39 37 32 29 25 22 20 17 15 13 12 13 15 16 22 30 33 45 61
5 7 5 7 4 4 3 7 4 5 4 6 4 2 2 4 4 7 6 4 3 4 16 28 33 42 48 50 50 53 53 54 56 57 55 52 49 42 34 32 29 25 22 19 17 16 18 18 17 24 30 43 67 60
8 4 6 6 7 5 5 4 3 5 3 4 5 3 4 7 9 5 7 4 13 26 36 45 45 47 39 33 32 29 28 32 43 49 51 52 49 50 44 38 33 29 27 21 21 20 22 24 26 33 46 74 65 61
3 9 7 5 5 4 4 5 5 2 4 6 6 4 5 5 4 5 6 13 36 52 55 50 45 40 37 33 23 26 9 20 28 38 45 44 51 45 44 37 31 30 29 27 27 28 31 41 41 56 63 66 55 47
8 10 8 11 8 7 8 6 7 9 5 8 7 11 7 6 6 6 8 34 49 56 51 49 52 48 37 25 22 13 2 6 16 31 39 42 46 53 49 45 39 31 33 30 31 36 43 48 46 43 59 56 45 45
7 8 6 6 4 5 5 5 3 3 6 10 9 11 9 9 7 11 33 46 54 36 35 40 38 33 26 15 9 9 8 7 11 28 37 42 43 45 43 49 42 36 36 34 33 44 54 51 49 51 67 51 43 43
6 8 6 9 7 6 6 7 9 10 9 15 9 11 8 13 8 21 29 47 47 45 42 37 34 43 34 28 28 38 36 44 54 56 53 48 47 40 36 34 33 38 36 35 40 43 48 64 61 62 57 44 42 41
5 6 5 8 7 10 13 13 12 13 13 12 6 7 7 13 33 39 51 52 54 68 75 68 73 72 69 48 53 49 47 39 40 47 52 53 49 41 39 43 45 45 45 44 39 47 66 61 61 56 45 44 44 44
7 8 6 17 10 10 14 13 14 14 15 17 9 7 14 39 52 58 62 68 67 64 75 85 84 91 84 84 73 79 78 76 58 57 56 57 54 49 50 51 51 47 41 44 57 60 63 66 53 50 47 46 44 41
6 7 17 16 10 13 13 15 19 16 14 19 21 19 18 15 43 54 60 62 61 70 79 82 83 88 84 73 74 72 71 83 84 67 63 58 51 46 48 53 58 61 69 78 72 63 55 47 45 45 43 41 41 38
6 7 13 9 12 10 8 12 13 13 10 13 15 15 12 7 13 32 48 47 53 53 58 64 70 65 69 75 79 68 50 49 64 85 88 86 83 76 78 80 77 78 79 73 59 51 46 44 43 42 42 41 38 36
15 15 13 10 5 4 6 4 4 6 9 9 14 15 17 15 12 17 26 38 42 39 40 40 46 49 51 57 64 67 69 67 53 52 55 61 62 55 47 42 41 44 43 44 48 46 45 46 44 41 39 37 35 34
Wind_Direction_500mb
261 254 264 268 268 270 265 260 261 267 257 249 249 248 246 248 249 252 251 253 224 258 271 264 272 275 305 261 283 25 230 200 221 215 233 188 239 186 215 207 196 202 200 208 229 212 221 139 141 229 71 111 123 152
259 261 260 272 265 263 260 267 257 260 264 250 250 247 239 246 243 251 257 253 254 237 260 286 261 254 259 262 289 295 328 309 357 260 217 202 208 161 208 190 219 218 229 206 228 222 103 168 87 133 113 147 164 158
251 255 262 257 274 273 256 265 266 255 259 245 237 235 228 244 247 242 247 251 248 272 285 255 262 256 240 244 234 267 123 347 17 337 326 336 208 247 193 215 163 148 166 181 186 132 115 152 172 149 185 173 149 150
253 251 251 264 269 268 271 266 278 261 261 241 232 233 230 236 248 253 240 245 235 280 278 174 302 241 252 232 242 228 268 304 303 296 264 246 204 248 185 12 251 73 170 156 144 140 165 177 180 169 148 142 135 132
259 249 250 253 260 270 275 283 282 258 243 237 232 234 230 233 252 259 252 237 235 260 313 312 297 279 237 215 218 213 236 265 270 243 226 181 113 206 171 191 176 191 143 212 238 111 258 97 164 165 153 147 142 136
246 249 250 251 260 262 270 268 281 268 245 241 238 245 221 228 255 254 234 215 226 232 272 273 353 288 181 166 168 179 202 229 259 280 43 128 56 286 201 217 84 153 124 101 129 124 127 147 154 159 156 149 144 139
248 244 247 255 259 249 255 248 257 255 236 225 225 214 214 223 231 231 294 222 186 200 249 256 216 134 158 158 166 169 157 198 237 290 207 343 145 303 225 225 139 149 134 132 122 130 137 161 170 159 155 151 138 137
262 245 241 246 253 246 263 254 249 256 257 228 212 214 217 233 244 248 241 211 193 215 241 264 255 211 179 181 174 184 182 182 138 208 170 223 159 241 203 102 118 135 139 142 154 139 101 137 157 159 159 152 146 147
250 255 237 239 245 243 275 263 249 257 261 259 210 205 231 241 229 211 187 175 179 243 278 216 267 120 179 185 151 166 200 205 147 206 189 213 180 222 92 131 118 101 140 142 156 161 153 148 166 175 172 169 166 162
236 245 230 220 234 245 289 261 277 257 230 174 188 181 209 206 195 163 170 195 203 209 227 262 137 271 259 193 192 150 189 180 190 144 149 212 215 89 95 27 271 252 230 216 199 190 181 182 186 188 196 194 187 177
233 227 222 212 224 239 272 264 202 178 155 180 181 210 214 164 166 197 195 195 187 222 204 199 197 239 251 218 207 204 187 175 213 148 216 189 214 165 164 89 15 297 241 228 225 223 223 224 222 205 198 190 183 180
213 211 210 203 215 238 235 203 87 158 169 179 177 175 171 192 207 213 192 182 214 213 166 183 172 181 232 191 309 238 196 198 198 142 195 223 111 138 155 101 37 3 254 222 217 225 228 234 220 200 197 193 192 184
199 203 199 195 207 246 202 172 137 168 170 162 189 206 181 202 234 229 180 175 200 169 171 174 147 191 156 181 229 216 188 187 136 184 199 77 138 146 141 81 37 22 30 192 201 212 227 223 202 202 204 193 188 185
182 186 186 186 196 193 181 190 194 179 173 216 203 208 225 192 229 235 310 60 86 192 173 163 152 149 105 101 247 204 96 152 198 190 194 140 151 133 108 79 48 32 42 122 184 200 197 194 197 201 196 186 172 169
168 174 174 173 178 168 144 122 107 77 139 240 220 233 214 355 272 269 280 236 286 224 168 126 23 123 128 235 234 131 169 195 206 174 90 138 123 110 93 67 52 43 41 54 82 151 179 175 174 181 183 178 170 165
153 151 168 170 160 135 120 115 165 239 266 258 246 270 208 288 286 230 247 198 182 158 138 111 85 238 215 195 168 181 186 211 93 94 129 140 138 118 90 64 46 38 37 39 48 66 136 153 158 163 167 170 169 163
140 145 162 158 145 155 175 160 212 239 264 270 344 321 275 234 288 279 204 185 164 169 146 142 171 227 306 208 202 349 9 62 112 132 141 142 135 121 85 49 29 24 35 37 39 41 148 151 134 139 150 156 154 154
127 149 152 157 170 155 167 223 248 235 243 222 272 356 9 318 332 130 175 151 140 189 181 167 142 184 229 199 172 128 121 128 132 146 150 150 149 105 9 353 357 354 19 36 37 35 113 105 132 128 146 144 140 142
138 144 138 134 134 142 247 263 234 277 37 347 332 10 72 4 110 135 128 140 199 219 137 199 227 200 131 18 105 119 142 157 168 180 207 242 256 259 277 296 306 321 336 4 27 44 111 146 154 170 172 156 154 155
131 131 121 84 68 7 332 325 3 318 29 348 335 353 354 41 98 151 149 163 185 201 188 204 155 144 148 163 202 231 237 244 252 257 255 252 254 257 260 255 261 266 283 275 262 170 144 156 144 140 165 171 165 162
129 134 72 41 36 34 4 345 41 6 326 329 7 9 13 74 151 100 74 342 272 287 228 267 290 288 279 279 271 262 256 251 247 247 253 251 241 243 242 242 242 238 236 231 209 210 177 174 166 159 160 172 179 175
130 86 24 17 9 350 8 4 329 321 306 331 321 325 343 77 84 39 313 252 253 249 282 306 305 299 289 280 271 263 258 253 250 248 244 236 235 233 232 228 225 224 226 220 206 192 188 191 177 172 170 171 173 162
89 19 16 4 344 23 42 2 335 3 310 355 298 265 41 346 349 317 250 257 305 280 315 312 301 293 292 290 281 272 263 255 248 244 240 237 235 229 224 224 216 211 211 210 197 185 192 192 195 198 187 174 157 149
26 47 18 10 5 11 345 354 338 323 315 336 336 347 23 337 314 262 275 329 2 338 320 316 321 318 312 303 296 284 263 246 242 240 238 233 222 218 210 211 215 210 195 197 191 178 182 189 193 195 168 156 148 144
16 14 7 342 22 346 20 23 351 340 15 0 344 6 354 310 293 347 336 327 329 324 330 331 331 332 321 324 325 331 269 248 239 230 220 217 212 205 196 194 202 199 187 186 183 175 181 167 150 143 144 150 150 149
66 25 10 21 13 30 358 5 31 1 343 343 359 341 345 312 342 352 340 322 328 331 336 343 342 343 354 354 349 14 264 268 214 205 205 201 198 197 184 180 182 183 180 178 178 178 172 166 159 167 171 164 154 149
52 36 16 26 346 334 4 355 1 8 19 10 354 342 17 1 350 358 320 338 340 357 11 16 14 12 14 49 27 11 50 96 155 178 170 175 180 178 176 175 173 169 168 170 170 175 177 172 157 168 165 149 151 153
44 33 52 29 48 20 22 28 26 20 11 350 359 23 29 4 346 320 326 15 33 36 41 46 34 32 61 95 98 89 91 95 104 112 115 120 131 144 152 155 157 166 158 160 165 168 174 159 160 162 149 147 149 151
36 36 354 58 78 61 35 19 18 29 4 1 24 38 24 357 12 16 37 38 42 50 55 48 45 58 79 89 96 86 83 103 105 115 119 123 127 130 137 139 138 149 153 151 162 160 156 168 153 145 147 146 146 147
67 27 38 55 53 51 38 38 56 59 55 55 61 49 31 44 51 60 59 63 55 45 48 59 61 65 63 68 81 83 89 84 100 99 103 113 125 133 137 138 142 140 143 140 147 151 145 134 139 137 137 139 141 143
73 68 80 80 76 82 81 73 71 72 57 47 52 45 34 33 46 53 60 57 58 66 65 60 57 57 64 74 77 81 80 77 79 91 115 121 131 128 125 129 133 128 127 125 127 132 129 130 133 135 135 139 142 142
48 73 106 104 106 95 89 86 77 74 52 36 36 28 18 59 44 33 44 49 53 54 56 64 67 62 62 64 61 69 90 88 95 85 97 101 103 109 114 117 118 121 124 125 130 132 129 127 129 132 133 134 136 139
90 96 95 98 105 97 74 87 79 92 61 45 37 34 40 54 62 20 32 39 47 47 49 50 59 64 65 69 73 71 67 71 88 106 112 112 115 112 112 117 121 123 124 129 125 128 128 125 123 124 126 127 131 135
Wind_Speed_850mb
18 17 21 22 22 23 19 18 20 12 18 23 23 22 21 18 21 18 12 16 19 23 38 21 15 14 9 4 9 12 9 12 12 16 19 9 14 20 21 23 31 26 23 18 20 22 20 27 17 19 9 15 14 11
17 18 18 21 19 20 20 20 21 19 19 21 22 22 19 15 18 16 13 12 15 25 22 23 26 33 31 24 20 10 10 5 10 9 6 6 12 8 24 18 3 20 11 11 12 14 18 20 0 8 5 9 11 12
21 20 19 16 13 10 11 16 17 17 17 19 17 18 20 15 15 14 11 13 11 17 35 33 26 21 28 29 24 11 4 9 2 6 10 3 12 9 16 15 24 8 6 8 13 12 17 14 11 5 7 9 13 14
19 22 20 18 15 13 14 17 17 17 16 17 16 16 17 15 15 14 14 14 17 14 12 2 3 8 14 27 24 31 20 14 13 6 8 6 7 3 15 7 19 7 17 14 8 12 9 10 8 10 13 19 21 20
16 18 19 18 16 14 15 16 14 14 16 16 16 15 15 15 15 14 16 20 22 11 11 18 26 9 11 21 21 22 16 10 6 9 9 4 4 7 2 9 9 13 11 14 10 6 11 8 14 17 23 24 22 23
23 18 19 18 15 17 17 16 13 12 17 19 18 17 16 12 9 10 10 22 20 10 9 6 5 4 6 19 19 15 10 7 6 5 3 2 2 6 11 13 12 10 10 6 6 11 11 16 19 21 23 24 22 23
24 25 22 19 16 15 14 16 13 12 17 20 20 15 16 11 11 15 4 5 21 9 9 8 5 5 14 22 14 10 6 4 2 3 1 2 5 5 5 12 18 13 13 12 13 16 15 18 16 21 25 25 27 26
18 23 22 19 16 16 13 17 20 17 20 23 22 20 15 12 15 18 18 9 23 12 11 6 3 10 19 17 15 8 10 9 3 3 4 4 5 4 8 16 12 10 12 12 11 7 7 13 21 24 25 27 28 28
16 16 22 19 16 16 14 19 21 20 19 11 17 22 16 14 16 12 14 13 11 13 8 7 4 4 18 17 9 11 7 8 6 8 9 6 8 10 11 7 6 7 7 14 8 8 9 10 18 23 23 23 24 28
23 18 18 19 17 16 13 19 22 17 20 22 13 12 12 9 14 21 18 12 13 12 12 8 9 5 12 25 18 16 10 7 10 7 13 9 16 14 5 1 2 4 7 10 13 15 12 11 15 18 19 19 21 26
24 22 19 21 15 13 13 18 10 14 23 14 12 9 9 18 13 10 11 11 15 8 15 9 16 4 9 12 9 10 6 9 8 10 8 11 11 20 9 4 5 5 12 19 20 21 17 15 13 17 17 18 21 26
23 22 17 21 15 10 11 9 8 14 11 10 9 13 13 11 11 6 10 10 11 9 13 18 17 11 9 2 3 8 8 8 9 21 10 10 8 22 12 5 8 6 8 22 27 25 26 20 20 16 17 18 20 20
23 21 19 21 14 7 13 11 6 16 11 11 8 7 8 8 6 9 15 8 8 14 14 20 13 16 14 6 10 9 14 8 20 12 10 7 25 17 9 5 6 11 3 13 23 21 19 16 19 24 22 20 20 23
22 20 20 21 12 11 15 14 15 6 12 5 7 7 8 8 9 4 3 4 5 5 12 13 16 5 7 5 10 8 6 11 10 9 10 13 22 15 11 6 6 10 9 5 9 11 14 14 15 20 23 25 26 28
21 20 22 22 13 10 16 19 13 3 1 5 5 7 9 3 6 10 8 5 3 5 16 16 4 7 3 9 6 4 10 8 10 5 10 28 22 18 14 12 10 9 11 9 5 4 7 9 11 12 23 30 30 32
25 24 19 23 15 18 13 6 5 1 4 5 6 8 2 5 5 8 3 4 10 17 17 13 1 3 10 3 5 5 4 5 8 9 36 34 25 15 12 11 11 11 11 12 10 4 4 6 9 14 22 29 32 32
22 11 26 23 14 9 7 8 4 5 4 5 2 4 7 4 4 4 7 5 13 17 4 7 9 7 2 5 5 2 2 10 17 26 31 25 20 13 8 8 10 11 10 11 13 7 7 13 11 18 25 30 35 38
13 23 27 25 16 10 9 5 2 4 6 4 3 6 5 5 4 7 6 9 11 6 7 5 6 5 4 5 7 9 14 15 17 23 20 14 7 3 4 7 8 8 8 10 10 10 10 11 14 19 26 32 39 46
23 25 22 16 9 3 1 2 2 3 3 3 7 6 1 2 4 5 9 7 6 2 4 3 3 4 4 2 9 13 15 12 12 11 8 7 9 12 11 10 9 7 6 4 5 4 4 15 9 18 27 34 38 44
25 25 19 8 4 1 1 1 3 4 3 5 6 6 1 5 2 8 9 5 3 4 6 5 3 5 6 4 3 6 10 13 14 18 19 18 17 17 18 13 8 8 7 5 2 3 4 13 13 15 23 37 48 53
20 17 9 10 4 4 2 4 1 4 5 4 7 5 3 2 3 2 3 3 3 2 3 2 6 8 12 19 22 25 28 29 32 32 30 26 22 21 18 16 14 13 12 9 8 9 12 13 18 18 19 38 51 58
16 6 7 8 4 4 2 7 3 6 4 6 4 5 2 1 1 2 6 6 4 3 4 10 23 29 33 34 35 37 39 42 43 44 43 39 37 32 29 25 22 20 17 15 13 12 13 15 16 22 30 33 45 61
5 7 5 7 4 4 3 7 4 5 4 6 4 2 2 4 4 7 6 4 3 4 16 28 33 42 48 50 50 53 53 54 56 57 55 52 49 42 34 32 29 25 22 19 17 16 18 18 17 24 30 43 67 60
8 4 6 6 7 5 5 4 3 5 3 4 5 3 4 7 9 5 7 4 13 26 36 45 45 47 39 33 32 29 28 32 43 49 51 52 49 50 44 38 33 29 27 21 21 20 22 24 26 33 46 74 65 61
3 9 7 5 5 4 4 5 5 2 4 6 6 4 5 5 4 5 6 13 36 52 55 50 45 40 37 33 23 26 9 20 28 38 45 44 51 45 44 37 31 30 29 27 27 28 31 41 41 56 63 66 55 47
8 10 8 11 8 7 8 6 7 9 5 8 7 11 7 6 6 6 8 34 49 56 51 49 52 48 37 25 22 13 2 6 16 31 39 42 46 53 49 45 39 31 33 30 31 36 43 48 46 43 59 56 45 45
7 8 6 6 4 5 5 5 3 3 6 10 9 11 9 9 7 11 33 46 54 36 35 40 38 33 26 15 9 9 8 7 11 28 37 42 43 45 43 49 42 36 36 34 33 44 54 51 49 51 67 51 43 43
6 8 6 9 7 6 6 7 9 10 9 15 9 11 8 13 8 21 29 47 47 45 42 37 34 43 34 28 28 38 36 44 54 56 53 48 47 40 36 34 33 38 36 35 40 43 48 64 61 62 57 44 42 41
5 6 5 8 7 10 13 13 12 13 13 12 6 7 7 13 33 39 51 52 54 68 75 68 73 72 69 48 53 49 47 39 40 47 52 53 49 41 39 43 45 45 45 44 39 47 66 61 61 56 45 44 44 44
7 8 6 17 10 10 14 13 14 14 15 17 9 7 14 39 52 58 62 68 67 64 75 85 84 91 84 84 73 79 78 76 58 57 56 57 54 49 50 51 51 47 41 44 57 60 63 66 53 50 47 46 44 41
6 7 17 16 10 13 13 15 19 16 14 19 21 19 18 15 43 54 60 62 61 70 79 82 83 88 84 73 74 72 71 83 84 67 63 58 51 46 48 53 58 61 69 78 72 63 55 47 45 45 43 41 41 38
6 7 13 9 12 10 8 12 13 13 10 13 15 15 12 7 13 32 48 47 53 53 58 64 70 65 69 75 79 68 50 49 64 85 88 86 83 76 78 80 77 78 79 73 59 51 46 44 43 42 42 41 38 36
15 15 13 10 5 4 6 4 4 6 9 9 14 15 17 15 12 17 26 38 42 39 40 40 46 49 51 57 64 67 69 67 53 52 55 61 62 55 47 42 41 44 43 44 48 46 45 46 44 41 39 37 35 34
Wind_Direction_850mb
261 254 264 268 268 270 265 260 261 267 257 249 249 248 246 248 249 252 251 253 224 258 271 264 272 275 305 261 283 25 230 200 221 215 233 188 239 186 215 207 196 202 200 208 229 212 221 139 141 229 71 111 123 152
259 261 260 272 265 263 260 267 257 260 264 250 250 247 239 246 243 251 257 253 254 237 260 286 261 254 259 262 289 295 328 309 357 260 217 202 208 161 208 190 219 218 229 206 228 222 103 168 87 133 113 147 164 158
251 255 262 257 274 273 256 265 266 255 259 245 237 235 228 244 247 242 247 251 248 272 285 255 262 256 240 244 234 267 123 347 17 337 326 336 208 247 193 215 163 148 166 181 186 132 115 152 172 149 185 173 149 150
253 251 251 264 269 268 271 266 278 261 261 241 232 233 230 236 248 253 240 245 235 280 278 174 302 241 252 232 242 228 268 304 303 296 264 246 204 248 185 12 251 73 170 156 144 140 165 177 180 169 148 142 135 132
259 249 250 253 260 270 275 283 282 258 243 237 232 234 230 233 252 259 252 237 235 260 313 312 297 279 237 215 218 213 236 265 270 243 226 181 113 206 171 191 176 191 143 212 238 111 258 97 164 165 153 147 142 136
246 249 250 251 260 262 270 268 281 268 245 241 238 245 221 228 255 254 234 215 226 232 272 273 353 288 181 166 168 179 202 229 259 280 43 128 56 286 201 217 84 153 124 101 129 124 127 147 154 159 156 149 144 139
248 244 247 255 259 249 255 248 257 255 236 225 225 214 214 223 231 231 294 222 186 200 249 256 216 134 158 158 166 169 157 198 237 290 207 343 145 303 225 225 139 149 134 132 122 130 137 161 170 159 155 151 138 137
262 245 241 246 253 246 263 254 249 256 257 228 212 214 217 233 244 248 241 211 193 215 241 264 255 211 179 181 174 184 182 182 138 208 170 223 159 241 203 102 118 135 139 142 154 139 101 137 157 159 159 152 146 147
250 255 237 239 245 243 275 263 249 257 261 259 210 205 231 241 229 211 187 175 179 243 278 216 267 120 179 185 151 166 200 205 147 206 189 213 180 222 92 131 118 101 140 142 156 161 153 148 166 175 172 169 166 162
236 245 230 220 234 245 289 261 277 257 230 174 188 181 209 206 195 163 170 195 203 209 227 262 137 271 259 193 192 150 189 180 190 144 149 212 215 89 95 27 271 252 230 216 199 190 181 182 186 188 196 194 187 177
233 227 222 212 224 239 272 264 202 178 155 180 181 210 214 164 166 197 195 195 187 222 204 199 197 239 251 218 207 204 187 175 213 148 216 189 214 165 164 89 15 297 241 228 225 223 223 224 222 205 198 190 183 180
213 211 210 203 215 238 235 203 87 158 169 179 177 175 171 192 207 213 192 182 214 213 166 183 172 181 232 191 309 238 196 198 198 142 195 223 111 138 155 101 37 3 254 222 217 225 228 234 220 200 197 193 192 184
199 203 199 195 207 246 202 172 137 168 170 162 189 206 181 202 234 229 180 175 200 169 171 174 147 191 156 181 229 216 188 187 136 184 199 77 138 146 141 81 37 22 30 192 201 212 227 223 202 202 204 193 188 185
182 186 186 186 196 193 181 190 194 179 173 216 203 208 225 192 229 235 310 60 86 192 173 163 152 149 105 101 247 204 96 152 198 190 194 140 151 133 108 79 48 32 42 122 184 200 197 194 197 201 196 186 172 169
168 174 174 173 178 168 144 122 107 77 139 240 220 233 214 355 272 269 280 236 286 224 168 126 23 123 128 235 234 131 169 195 206 174 90 138 123 110 93 67 52 43 41 54 82 151 179 175 174 181 183 178 170 165
153 151 168 170 160 135 120 115 165 239 266 258 246 270 208 288 286 230 247 198 182 158 138 111 85 238 215 195 168 181 186 211 93 94 129 140 138 118 90 64 46 38 37 39 48 66 136 153 158 163 167 170 169 163
140 145 162 158 145 155 175 160 212 239 264 270 344 321 275 234 288 279 204 185 164 169 146 142 171 227 306 208 202 349 9 62 112 132 141 142 135 121 85 49 29 24 35 37 39 41 148 151 134 139 150 156 154 154
127 149 152 157 170 155 167 223 248 235 243 222 272 356 9 318 332 130 175 151 140 189 181 167 142 184 229 199 172 128 121 128 132 146 150 150 149 105 9 353 357 354 19 36 37 35 113 105 132 128 146 144 140 142
138 144 138 134 134 142 247 263 234 277 37 347 332 10 72 4 110 135 128 140 199 219 137 199 227 200 131 18 105 119 142 157 168 180 207 242 256 259 277 296 306 321 336 4 27 44 111 146 154 170 172 156 154 155
131 131 121 84 68 7 332 325 3 318 29 348 335 353 354 41 98 151 149 163 185 201 188 204 155 144 148 163 202 231 237 244 252 257 255 252 254 257 260 255 261 266 283 275 262 170 144 156 144 140 165 171 165 162
129 134 72 41 36 34 4 345 41 6 326 329 7 9 13 74 151 100 74 342 272 287 228 267 290 288 279 279 271 262 256 251 247 247 253 251 241 243 242 242 242 238 236 231 209 210 177 174 166 159 160 172 179 175
130 86 24 17 9 350 8 4 329 321 306 331 321 325 343 77 84 39 313 252 253 249 282 306 305 299 289 280 271 263 258 253 250 248 244 236 235 233 232 228 225 224 226 220 206 192 188 191 177 172 170 171 173 162
89 19 16 4 344 23 42 2 335 3 310 355 298 265 41 346 349 317 250 257 305 280 315 312 301 293 292 290 281 272 263 255 248 244 240 237 235 229 224 224 216 211 211 210 197 185 192 192 195 198 187 174 157 149
26 47 18 10 5 11 345 354 338 323 315 336 336 347 23 337 314 262 275 329 2 338 320 316 321 318 312 303 296 284 263 246 242 240 238 233 222 218 210 211 215 210 195 197 191 178 182 189 193 195 168 156 148 144
16 14 7 342 22 346 20 23 351 340 15 0 344 6 354 310 293 347 336 327 329 324 330 331 331 332 321 324 325 331 269 248 239 230 220 217 212 205 196 194 202 199 187 186 183 175 181 167 150 143 144 150 150 149
66 25 10 21 13 30 358 5 31 1 343 343 359 341 345 312 342 352 340 322 328 331 336 343 342 343 354 354 349 14 264 268 214 205 205 201 198 197 184 180 182 183 180 178 178 178 172 166 159 167 171 164 154 149
52 36 16 26 346 334 4 355 1 8 19 10 354 342 17 1 350 358 320 338 340 357 11 16 14 12 14 49 27 11 50 96 155 178 170 175 180 178 176 175 173 169 168 170 170 175 177 172 157 168 165 149 151 153
44 33 52 29 48 20 22 28 26 20 11 350 359 23 29 4 346 320 326 15 33 36 41 46 34 32 61 95 98 89 91 95 104 112 115 120 131 144 152 155 157 166 158 160 165 168 174 159 160 162 149 147 149 151
36 36 354 58 78 61 35 19 18 29 4 1 24 38 24 357 12 16 37 38 42 50 55 48 45 58 79 89 96 86 83 103 105 115 119 123 127 130 137 139 138 149 153 151 162 160 156 168 153 145 147 146 146 147
67 27 38 55 53 51 38 38 56 59 55 55 61 49 31 44 51 60 59 63 55 45 48 59 61 65 63 68 81 83 89 84 100 99 103 113 125 133 137 138 142 140 143 140 147 151 145 134 139 137 137 139 141 143
73 68 80 80 76 82 81 73 71 72 57 47 52 45 34 33 46 53 60 57 58 66 65 60 57 57 64 74 77 81 80 77 79 91 115 121 131 128 125 129 133 128 127 125 127 132 129 130 133 135 135 139 142 142
48 73 106 104 106 95 89 86 77 74 52 36 36 28 18 59 44 33 44 49 53 54 56 64 67 62 62 64 61 69 90 88 95 85 97 101 103 109 114 117 118 121 124 125 130 132 129 127 129 132 133 134 136 139
90 96 95 98 105 97 74 87 79 92 61 45 37 34 40 54 62 20 32 39 47 47 49 50 59 64 65 69 73 71 67 71 88 106 112 112 115 112 112 117 121 123 124 129 125 128 128 125 123 124 126 127 131 135